Find Thaicom 6

NORAD ID: 39500 Int'l Des: 2014-002 Owner: THAIC Country: T operational
HEOCIRCULARGSOGEO

リアルタイム位置

3D地球を読み込み中...

Thaicom 6について

説明を読み込み中...

次回通過

Passes for default location (London). Set your location on the main map for personalized predictions.

高度履歴

Loading altitude history...

軌道要素

1 39500U 14002A 26105.81436648 -.00000115 00000-0 00000+0 0 9995
2 39500 0.0497 115.7238 0003721 325.5446 134.4027 1.00269793 44835
Epoch: Apr 15, 2026 • Age: 6 hours

現在のステータス

高度 35796.5 km
速度 3.07 km/s
衛星直下点 0.01°N, 78.49°E
打ち上げ日 Jan 6, 2014
運用期間 12.2 years
タイプ other

技術仕様

分類 Payload
質量 3016.00 kg
乾燥質量 2500.00 kg
総質量 3016.00 kg
長さ 5.00 m
直径 2.00 m
スパン 18.00 m
形状 Box+ 2 pan
製造者 OSCD
バスタイプ Star-2.3
フェーズステータス In Orbit
所有者/国 THAIC/T

Most Searched